Regional Weather Roundup
Issued by NWS

Home | Current Version | Previous Version | Graphics & Text | Print | Product List | Glossary On
Versions: 1 2 3 4 5 6 7 8 9 10 11 12 13 14 15 16 17 18 19 20 21 22 23 24 25 26 27 28 29 30 31 32 33 34 35 36 37 38 39 40 41 42 43 44 45 46 47 48 49 50
774
ASUS45 KBOU 160210
RWRCO

WEATHER ROUNDUP FOR COLORADO
NATIONAL WEATHER SERVICE DENVER/BOULDER CO
700 PM MST FRI DEC 15 2017

NOTE: "FAIR" INDICATES FEW OR NO CLOUDS BELOW 12000 FEET WITH NO
SIGNIFICANT WEATHER AND/OR OBSTRUCTIONS TO VISIBILITY.

COZ001>005-013-030-031-160300-
...NORTHWEST COLORADO...

CITY           SKY/WX    TMP DP  RH WIND       PRES   REMARKS
CRAIG          FAIR      18   9  68 CALM      30.08F
HAYDEN         FAIR      26  13  57 CALM      30.09F
MEEKER         FAIR      27   7  42 NE7       30.08F WCI  19
RABBIT EARS PA FAIR      27   0  31 SW6       30.12S WCI  20
STEAMBOAT SPGS FAIR      26  13  57 SE5       30.08F WCI  20
WALDEN         FAIR      28   5  37 S14       30.05F WCI  17
$$

COZ006>008-011-160300-
...WEST CENTRAL VALLEYS...

CITY           SKY/WX    TMP DP  RH WIND       PRES   REMARKS
GRAND JUNCTION FAIR      27   7  42 CALM      30.12F
MONTROSE       FAIR      26   7  44 S3        30.15F
EAGLE          FAIR      22  12  65 CALM      30.15S
RIFLE          FAIR      25   5  42 SE3       30.14S
DELTA          FAIR      32   4  30 N6        30.13F WCI  26
NUCLA          FAIR      37   0  20 E6        30.17S
$$

COZ017>023-064>068-160300-
...SOUTHWEST COLORADO...

CITY           SKY/WX    TMP DP  RH WIND       PRES   REMARKS
DURANGO        FAIR      27  14  58 N6        30.15F WCI  20
CORTEZ         FAIR      22   3  44 E7        30.16R WCI  13
PAGOSA SPRINGS FAIR      25  10  51 CALM      30.17S
TELLURIDE      FAIR      33  -9  16 SE6       30.18F WCI  27
WOLF CREEK PAS FAIR      30   0  27 CALM      30.28F
$$

COZ009-010-012-014-032>034-037-058>063-160300-
...CENTRAL COLORADO...

CITY           SKY/WX    TMP DP  RH WIND       PRES   REMARKS
ASPEN          FAIR      20   9  62 S6        30.11F WCI  12
BUENA VISTA    FAIR      24  11  57 W6        30.08F WCI  17
COPPER MTN     NOT AVBL
BERTHOUD PASS  FAIR      21  10  63 NW35G45   30.11F WCI   2
COTTONWOOD PAS FAIR      41   1  19 NW9G16    30.11F
GUNNISON       FAIR      19   6  57 CALM      30.16R
KREMMLING      FAIR      21  12  68 N3        30.14S
LEADVILLE      FAIR      24   0  35 NE8       30.12F WCI  15
MONARCH PASS   FAIR      21  -6  30 SW32      30.27F WCI   2
SALIDA         FAIR      37   2  23 W5        30.14S
SUNLIGHT       FAIR      25  -4  28 SW15      30.20F WCI  12
WILKERSON PASS FAIR      30   0  27 W12G18    30.14F WCI  21
$$

COZ069>075-160300-
...SAN LUIS VALLEY/SANGRE DE CRISTO MOUNTAINS...

CITY           SKY/WX    TMP DP  RH WIND       PRES   REMARKS
ALAMOSA        FAIR      24   8  50 NW8       30.14F WCI  15
DEL NORTE      FAIR      19   9  67 W9        30.17S WCI   8
LA VETA PASS   FAIR      23   0  36 SW28        N/A  WCI   6
SAGUACHE       FAIR      21  10  63 NE7       30.16F WCI  13
$$

COZ035-036-038>040-160300-
...NORTHERN COLORADO FRONT RANGE...

CITY           SKY/WX    TMP DP  RH WIND       PRES   REMARKS
DENVER INTL AP FAIR      46   5  18 W3        29.86S
DMNS CITY PARK NOT AVBL
AURORA         PTCLDY    41  13  32 S9        29.87F
FRONT RANGE AP PTCLDY    41  16  36 SE6       29.87F
ERIE MUNI ARPT FAIR      40   6  24 SW5       29.90S
BOULDER MUN AP FAIR      52  10  19 W6        29.84S
CENTENNIAL     FAIR      46  15  28 S6        29.88S
BROOMFIELD     PTCLDY    52   7  16 W16       29.86F
FORT COLLINS   FAIR      41  23  48 N3        29.85S
LONGMONT       FAIR      38  23  56 CALM      29.86S
$$

COZ041-046-047-076>085-087-088-160300-
...PIKES PEAK/PALMER DIVIDE AND SOUTHERN FOOTHILLS...

CITY           SKY/WX    TMP DP  RH WIND       PRES   REMARKS
COLO. SPRINGS  FAIR      36   8  31 NE6       29.93F
A. F. ACADEMY  FAIR      32   7  35 NE5       29.93F WCI  27
SCHRIEVER AFB  FAIR      36   9  32 CALM      29.94F
CHEYENNE MTN   FAIR      42  13  31 W3        29.90F
ELLICOTT         N/A    N/A N/A N/A SE9       29.91F
FALCON         FAIR      32   6  33 W5        29.95F WCI  27
FORT CARSON    FAIR      36  13  38 N10       29.90F
LIMON          FAIR      24  10  55 N8        29.89F WCI  15
MONUMENT HILL  FAIR      36  12  38 SW10      29.95F
CANON CITY     FAIR      48  12  23 NW14      29.91S
WALSENBURG     FAIR      45   7  21 SW15      29.96F
TRINIDAD       FAIR      37  11  34 W9        29.96F
$$

COZ042>045-048>051-090-091-160300-
...NORTHEAST COLORADO...

CITY           SKY/WX    TMP DP  RH WIND       PRES   REMARKS
GREELEY ARPT   FAIR      33  15  47 N7        29.85S WCI  27
AKRON          FAIR      43  11  27 S8        29.83F
BURLINGTON     FAIR      42  15  33 SW12      29.86F
WRAY           FAIR      37   5  25 SW6       29.82F
YUMA           FAIR      34   9  35 SW9       29.82F WCI  26
STERLING       FAIR      32  14  47 SW5       29.81S WCI  27
HOLYOKE        FAIR      36  12  38 W8        29.82S
FORT MORGAN    FAIR      44  16  32 CALM      29.83S
$$

COZ086-089-092>099-160300-
...SOUTHEAST COLORADO...

CITY           SKY/WX    TMP DP  RH WIND       PRES   REMARKS
PUEBLO         FAIR      41  12  30 W5        29.89S
LA JUNTA       FAIR      44  14  29 SW12      29.89F
LAMAR          FAIR      30  17  58 SW8       29.87F WCI  22
SPRINGFIELD      N/A     32  17  54 SW12      29.92F WCI  23
$$




USA.gov is the U.S. government's official web portal to all federal, state and local government web resources and services.